User: anonymous   Login
Location: ????????
(38.4362°N, 22.8767°E)
Time: 04:47:09
(UTC+00:00)
Language:

Lacrosse 5 rocket - Orbit

View from above orbital plane
View from above orbital plane
View from above satellite
View from above satellite

Ground track
Ground track

The orbit data is extracted from the following two-line orbital elements,

1 28647U 05016B   25196.48061371  .00009977  00000-0  29474-3 0  9993
2 28647  57.0003 178.8832 0069131 288.7012  70.6543 15.33296398340561
Epoch (UTC): 15 July 2025 11:32:05
Eccentricity: 0.0069131
inclination: 57.0003°
perigee height: 418 km
apogee height: 513 km
right ascension of ascending node: 178.8832°
argument of perigee: 288.7012°
revolutions per day: 15.33296398
mean anomaly at epoch: 70.6543°
orbit number at epoch: 34056

The dashed part of the orbit path shows where the satellite is in the earth's shadow,  

DLR